This is the latest recevied weather packets stored in our database for station/object KR0L-13. If no packets are shown the sender has not sent any weather packets the latest 10 day(s).
| Time | Temp. | Humidity | Pressure | Rain* | Wind** | Luminosity | Snow |
|---|---|---|---|---|---|---|---|
| 1788293721 | 38.33° C | 26% | 1014.7 hPa | 0 mm | - | - | - |
| 1788293121 | 38.33° C | 26% | 1014.8 hPa | 0 mm | - | - | - |
| 1788292521 | 38.33° C | 26% | 1014.9 hPa | 0 mm | - | - | - |
| 1788291921 | 38.33° C | 26% | 1015 hPa | 0 mm | - | - | - |
| 1788291321 | 38.33° C | 26% | 1015.1 hPa | 0 mm | - | - | - |
| 1788290721 | 38.33° C | 26% | 1015 hPa | 0 mm | - | - | - |
| 1788290121 | 38.33° C | 27% | 1015.1 hPa | 0 mm | - | - | - |
| 1788289521 | 38.33° C | 27% | 1015.1 hPa | 0 mm | - | - | - |
| 1788288921 | 38.33° C | 27% | 1015.2 hPa | 0 mm | - | - | - |
| 1788288321 | 38.33° C | 27% | 1015.3 hPa | 0 mm | - | - | - |
| 1788287721 | 37.78° C | 28% | 1015.4 hPa | 0 mm | - | - | - |
| 1788287121 | 37.78° C | 29% | 1015.3 hPa | 0 mm | - | - | - |
| 1788286521 | 37.78° C | 29% | 1015.7 hPa | 0 mm | - | - | - |
| 1788285921 | 37.78° C | 27% | 1015.8 hPa | 0 mm | - | - | - |
| 1788285321 | 37.22° C | 31% | 1016 hPa | 0 mm | - | - | - |
| 1788284721 | 37.22° C | 32% | 1016.2 hPa | 0 mm | - | - | - |
| 1788284121 | 37.22° C | 31% | 1016.3 hPa | 0 mm | - | - | - |
| 1788283521 | 36.67° C | 34% | 1016.3 hPa | 0 mm | - | - | - |
| 1788282921 | 36.67° C | 33% | 1016.4 hPa | 0 mm | - | - | - |
| 1788282321 | 36.11° C | 34% | 1016.3 hPa | 0 mm | - | - | - |
| 1788281722 | 36.11° C | 34% | 1016.4 hPa | 0 mm | - | - | - |
| 1788281133 | 35.56° C | 35% | 1016.5 hPa | 0 mm | - | - | - |
| 1788280521 | 35° C | 36% | 1016.6 hPa | 0 mm | - | - | - |
| 1788279921 | 35° C | 36% | 1016.5 hPa | 0 mm | - | - | - |
| 1788279321 | 34.44° C | 37% | 1016.6 hPa | 0 mm | - | - | - |
* Rain latest hour (hover to see other rain measurements)
** Current wind speed in m/s (hover to see current wind gust speed)